Regional Weather Roundup
Issued by NWS Little Rock, AR

Home | Current Version | Previous Version | Text Only | Print | Product List | Glossary On
Versions: 1 2 3 4 5 6 7 8 9 10 11 12 13 14 15 16 17 18 19 20 21 22 23 24 25 26 27 28 29 30 31 32 33 34 35 36 37 38 39 40 41 42 43 44 45 46 47 48 49 50
000
ASUS44 KLZK 011905
RWRLZK

WEATHER ROUNDUP FOR ARKANSAS
NATIONAL WEATHER SERVICE LITTLE ROCK AR
200 PM CDT TUE SEP 01 2015

NOTE: "FAIR" INDICATES FEW OR NO CLOUDS BELOW 12,000 FEET WITH NO
SIGNIFICANT WEATHER AND/OR OBSTRUCTIONS TO VISIBILITY.

ARZ001-003-010-029-012000-
NORTHWEST ARKANSAS

CITY           SKY/WX    TMP DP  RH WIND       PRES   REMARKS
FAYETTEVILLE   SUNNY     85  66  53 S13       30.09F HX  87
FORT SMITH     MOSUNNY   91  61  36 S8        30.04F HX  91
BENTONVILLE    MOSUNNY   88  64  45 S12G17    30.11S HX  89
ROGERS         SUNNY     86  66  51 S13       30.10F HX  88
SILOAM SPGS    MOSUNNY   86  64  48 S10       30.08S HX  87
HIGHFILL       MOSUNNY   87  67  51 S13       30.09F HX  90
$$

ARZ004-005-016-012000-
NORTH CENTRAL ARKANSAS

CITY           SKY/WX    TMP DP  RH WIND       PRES   REMARKS
BATESVILLE     PTSUNNY   86  75  70 E6        30.08F HX  95
FLIPPIN        PTSUNNY   90  64  43 SE7       30.06F HX  91
MTN HOME       PTSUNNY   87  69  54 S5        30.08F HX  91
$$

ARZ040-041-012000-
WEST CENTRAL ARKANSAS

CITY           SKY/WX    TMP DP  RH WIND       PRES   REMARKS
MENA           MOSUNNY   90  63  40 SE7       30.08F HX  90
MOUNT IDA      MOSUNNY   90  64  42 SE8       30.05F HX  91
$$

ARZ009-017-025-026-028-012000-
NORTHEAST ARKANSAS

CITY           SKY/WX    TMP DP  RH WIND       PRES   REMARKS
JONESBORO      MOSUNNY   88  68  51 SE6       30.08F HX  91
NEWPORT        PTSUNNY   89  72  57 VRB7      30.09F HX  96
WALNUT RIDGE   MOSUNNY   90  70  51 SE5       30.08F HX  95
BLYTHEVILLE    SUNNY     89  68  49 SE5       30.10F HX  93
$$

ARZ022-023-033-042-044-012000-
CENTRAL ARKANSAS

CITY           SKY/WX    TMP DP  RH WIND       PRES   REMARKS
LITTLE ROCK    CLOUDY    93  64  38 S7        30.07F HX  94
N LITTLE ROCK  CLOUDY    87  69  55 S2        30.07F HX  91
JACKSONVILLE   CLOUDY    90  68  49 VRB3      30.07F HX  93
SEARCY         CLOUDY    91  72  53 E7        30.09F HX  98
HOT SPRINGS    PTSUNNY   87  65  47 S7        30.07F HX  89
RUSSELLVILLE   MOSUNNY   91  67  44 SW5       30.05F HX  94
$$

ARZ036-012000-
EAST ARKANSAS

CITY           SKY/WX    TMP DP  RH WIND       PRES   REMARKS
WEST MEMPHIS   MOSUNNY   90  69  50 VRB7      30.07F HX  94
$$

ARZ050-053-066-070-073-012000-
SOUTHWEST ARKANSAS

CITY           SKY/WX    TMP DP  RH WIND       PRES   REMARKS
ARKADELPHIA    FAIR      91  67  45 VRB3      30.07F HX  94
CAMDEN         PTSUNNY   90  66  45 S3        30.07S HX  92
TEXARKANA      PTSUNNY   88  67  49 SE9       30.06F HX  91
EL DORADO      CLOUDY    86  68  54 S3        30.08S HX  89
DE QUEEN       SUNNY     90  64  42 MISG      30.03F HX  91
$$

ARZ056-057-069-012000-
SOUTHEAST ARKANSAS

CITY           SKY/WX    TMP DP  RH WIND       PRES   REMARKS
PINE BLUFF     CLOUDY    90  65  43 CALM      30.07F HX  92
STUTTGART      CLOUDY    90  70  51 W3        30.08S HX  95
MONTICELLO     PTSUNNY   90  67  46 E5        30.06F HX  93

$$




USA.gov is the U.S. government's official web portal to all federal, state and local government web resources and services.